Погода в Бирске

Погода в Бирске : погода сейчас, прогноз погоды и архив. Всё, что Вы хотите узнать о погоде в Бирске!

Хотите узнать прогноз погоды в Бирске? Тогда Вам сюда: Погода в Бирске

Поиск расширенной информации на нашем сайте:

Другие новости

Новости СМИ2

Главная страница сайта

Новости сайта

02.10.2013

Напоминаем, что на нашем новом сайте вы можете получить высокодетализированные прогнозы погоды по пунктам России, СНГ и мира (включающие важные для авиации метеовеличины, такие как направление и скорость ветра, видимость, явления погоды, количество и форма облачности, нижняя и верхняя граница облачности), а также ознакомиться с разнообразными материалами по авиационной метеорологии и подборкой полезных ссылок на эту тему.

Сайт Метеоцентр.Азия посвящён разработке технологий оптимизации авиаметеорологического обслуживания, включая проектирование и перспективное создание нескольких автоматизированных авиаметеорологических систем:
- система выпуска высокодетальных прогностических карт явлений погоды для нижнего воздушного пространства по России и ближнему зарубежью;
- система верификации прогнозов TAF (выпускаемых синоптиками официальных АМСГ РФ и ближнего зарубежья) и AUTOTAF (выпускаемых сайтом Метеоцентр.Азия) - выявление ошибок, онлайн-сопоставление с фактической погодой METAR, автоматическое внесение коррективов в прогнозы при резком отклонении фактической погоды от прогноза, подсчёт оправдываемости прогнозов по элементам и в целом;
- система обработки, анализа и отображения авиаметеорологической информации для применения провайдерами метеорологической информации.


Погода в Бирске - сегодня

Время (UTC), дата Ветер
(°,м/с) 
Видим.   Явления Облачность Т
(°С)
Тd
(°С)
f(%) Тe
(°С)
Pmin
(гПа)
dP
(гПа)
Po
(мм)
O2
(г/м3)
Тmin Tmax R s Состояние
почвы
09 26.05.17 200 (Ю) 5-11{11}  20000 м    4/4 600 м 
[Cu med, cong]
+25.3 +2.8 23 +25  1013.9  -1  744  274           
12 26.05.17 200 (Ю) 5{11}  20000 м    4/3 600 м верхняя 
[Cu hum|Ci fib]
+25.2 +2.6 23 +25  1012.2  -1.7  743  274           
15 26.05.17 210 (ЮЗ) 20000 м    8/1 600 м верхняя 
[Cu hum|Ci sp]
+23.7 +2.9 26 +24  1011.1  -1.2  742  275    +25.6       
18 26.05.17 190 (Ю) 10 км    3/0 средняя 
[Ac trans]
+19.1 +3.7 36 +20  1010.8  -0.6  742  279           
21 26.05.17 210 (ЮЗ) 10 км    10/10 600 м 
[Sc]
+17.2 +6.2 48 +17  1010.5  -0.4  742  280           
00 27.05.17 210 (ЮЗ) 20000 м    10/10 600 м 
[Sc]
+14.8 +8.1 64 +15  1009.8  -0.9  741  282           
03 27.05.17 250 (З) 10 км  слаб. ливневой дождь  10/10 600 м кучево-дожд. 
[Cb cap]
+14.6 +9.1 70 +15  1008.4  -1.4  740  281  +14.4    0.0    сухая 
06 27.05.17 190 (Ю) 20000 м  {ливн. осадки}  9/0 средняя, верхняя 
[Ac cast|Ci sp]
+17.7 +9.4 58 +20  1007.2  -0.9  739  278           
09 27.05.17 200 (Ю) 20000 м  гроза без осадков  10/8 600 м кучево-дожд., средняя 
[Cb cap|Ac cast]
+16.6 +8.8 60 +17  1005.9  -1.4  738  279           
12 27.05.17 190 (Ю) 20000 м  {гроза, ливн. осадки}  9/0 средняя, верхняя 
[Ac cast|Ci fib]
+19.9 +11.7 59 +25  1003.5  -2.1  737  274           
18 27.05.17 180 (Ю) 2{11}  10 км  в посл. час ливневой дождь  10/10 600 м кучево-дожд. 
[Cb cap]
+13.8 +10.7 82 +16  1002.3  -0.2  735  280           
21 27.05.17 220 (ЮЗ) 10 км  {ливн. осадки}  10/10 600 м кучево-дожд. 
[Cb cap]
+12.3 +10.6 89 +15  1001  -1.4  734  281           
00 28.05.17 280 (З) 4000 м  слаб. ливневой дождь  10/10 600 м кучево-дожд. 
[Cb cap]
+11.8 +10.6 92 +13  1000.5  -0.5  734  281           
03 28.05.17 310 (СЗ) 5{13}  20000 м  {ливн. осадки}  10/10 600 м кучево-дожд. 
[Cb cap]
+6.4 +4.3 86 +5  1004.6  3.5  737  289  +6.4      влажная 
06 28.05.17 310 (СЗ) 4{11}  20000 м  {ливн. осадки}  10/10 600 м кучево-дожд. 
[Cb cap]
+5.6 +2.7 82 +4  1006.9  2.1  738  291  +4.8         
09 28.05.17 330 (СЗ) 20000 м  в посл. час ливневой дождь  8/8 600 м кучево-дожд. 
[Cb cap]
+7.7 +1.6 65 +7  1008.1  1.4  739  289           
12 28.05.17 330 (СЗ) 20000 м  {ливн. осадки}  9/9 600 м кучево-дожд. 
[Cb cap]
+5.9 -0.8 62 +4  1009.4  1.1  740  292           
18 28.05.17 340 (С) 10 км    9/9 600 м кучево-дожд. 
[Cb cap]
+3.7 -1.9 67 +3  1010.6  0.4  741  295           
21 28.05.17 360 (С) 10 км    9/9 600 м кучево-дожд. 
[Cb cap]
+2.5 -2.5 70 +1  1011.1  0.4  741  296           
00 29.05.17 340 (С) 20000 м    8/4 600 м средняя 
[Sc|Ac trans]
+0.4 -3.6 74 1011.9  0.6  742  299           
03 29.05.17 360 (С) 20000 м    6/0 средняя, верхняя 
[Ac cast|Ci fib]
+3 -3 65 +2  1012.2  0.5  742  296  +0.4        влажная 
06 29.05.17 350 (С) 20000 м    4/4 600 м 
[Cu med, cong]
+6.7 -9.1 31 +5  1012.4  0.5  742  293           
09 29.05.17 320 (СЗ) 4{11}  20000 м    8/8 600 м 
[Cu med, cong]
+8.7 -8.5 29 +8  1012.1  -0.2  742  291           
12 29.05.17 330 (СЗ) 20000 м    8/8 600 м 
[Cu med, cong]
+9.7 -7.7 28 +9  1011.5  -0.5  742  289           
15 29.05.17 270 (З) 20000 м    8/4 600 м кучево-дожд., средняя, верхняя 
[Cb cap|Ac trans|Ci sp]
+9.4 -7.6 29 +9  1011.6  -0.1  742  290    +10.8       
Время (UTC), дата Ветер
(°,м/с) 
Видим.   Явления Облачность Т
(°С)
Тd
(°С)
f(%) Тe
(°С)
Pmin
(гПа)
dP
(гПа)
Po
(мм)
O2
(г/м3)
Тmin Tmax R s Состояние
почвы

Для получения пояснительной информации подведите курсор к названию столбца.

ПОГОДА в Бирске - архив

Всё, что Вы хотите узнать о погоде в Бирске - удобно и подробно!

Выберите нужную дату (начиная с 1 января 2015* года) и нажмите кнопку "Найти".
Будут отображены архивные сводки погоды по пункту Бирск, начиная с указанной даты.


Отображать данные в формате CSV (для использования в таблицах Excel)


Внимание! Наш архив погоды предназначен исключительно для личного некоммерческого использования в познавательных целях. Если Вам необходимы официальные справки о состоянии погоды (для производственных, юридических, коммерческих и т.п. целей), обращайтесь в органы Росгидромета.

*Примечание: данная дата относится к архиву по метеостанциям СССР (Россия, СНГ, Балтия).
Архив по метеостанциям Зарубежной Европы и Азии (кроме Китая) хранится 10 дней, по другим регионам земного шара (Китай, Африка, Америка, Австралия, Океания) - 1 день.

Бирск - район местоположения метеостанции


Название, широта, долгота, высота метеостанции:
Бирск 55.4°ш. 55.5°д. 186 м над ур. моря [Российская Федерация]

Дополнительная информация

В oтличие oт бoльшинства пoгoдных сайтoв мы публикуем пoдрoбную метеoинфoрмацию в детальнoм прoфессиoнальнoм фoрмате.

Характеристики температуры и влажнoсти вoздуха измеряются на высoте 2 м в тени вдали oт зданий и деревьев.
Скoрoсть ветра измеряется на высoте 10 м (на урoвне рoста челoвека скoрoсть ветра ниже в 1.5-2 раза). Если метеoстанция нахoдится в гoрoде или в лесу, тo скoрoсть ветра занижена на 2-4 м/с пo сравнению с oткрытым местoм. Скoрoсть ветра над акватoриями крупных рек и oзёр, а также на вершинах хoлмoв на 2-5 м/с выше, чем в oбычных услoвиях.
Атмoсфернoе давление в разных тoчках местнoсти мoжет значительнo oтличаться oт давления на метеoстанции, в зависимoсти oт услoвий рельефа (при пoдъёме на 10 м давление пoнижается примернo на 1 мм рт.ст.).